New York, NY

12:48 PM EST on December 05, 2019 (GMT -0500)
La Guardia

Weather History for KLGA - October, 2019

Change the Weather History Date:

Friday, October 18, 2019

  Actual Average Record
Temperature  
Mean Temperature 54 °F 57 °F  
Max Temperature 59 °F 64 °F 82 °F (2016)
Min Temperature 49 °F 50 °F 35 °F (1939)
Degree Days  
Heating Degree Days 11 8  
Month to date heating degree days 74 105  
Since 1 July heating degree days 77 140  
Cooling Degree Days 0 0  
Month to date cooling degree days 29 20  
Year to date cooling degree days 1484 1210  
Growing Degree Days 4 (Base 50)    
Moisture  
Dew Point 38 °F    
Average Humidity 56    
Maximum Humidity 64    
Minimum Humidity 47    
Precipitation  
Precipitation 0.00 in 0.12 in 1.33 in (1975)
Month to date precipitation 2.76 2.24  
Year to date precipitation 39.24 36.22  
Snow  
Snow 0.00 in 0.00 in - ()
Month to date snowfall 0.0 0.0  
Since 1 July snowfall 0.0 0.0  
Snow Depth 0.00 in    
Sea Level Pressure  
Sea Level Pressure 29.84 in    
Wind  
Wind Speed 19 mph (NW)    
Max Wind Speed 29 mph    
Max Gust Speed 37 mph    
Visibility 10 miles    
Events      
T = Trace of Precipitation, MM = Missing Value Source: NWS Daily Summary

Daily Weather History Graph

Daily Weather History Graph

Search for Another Location

Airport or City:

Astronomy

Oct. 18, 2019 Rise Set
Actual Time 7:09 AM EDT 6:10 PM EDT
Civil Twilight 6:41 AM EDT 6:38 PM EDT
Nautical Twilight 6:10 AM EDT 7:10 PM EDT
Astronomical Twilight 5:38 AM EDT 7:42 PM EDT
Moon 9:24 PM EDT (10/18) 11:41 AM EDT (10/18)
Length of Visible Light 11h 56m
Length of Day
11h 01m
Waning Gibbous, 79% of the Moon is Illuminated
Oct 18
Waning Gibbous
Oct 21
Last Quarter
Oct 27
New
Nov 4
First Quarter
Nov 12
Full

Hourly Weather History & Observations

Time (EDT) Temp. Dew Point Humidity Pressure Visibility Wind Dir Wind Speed Gust Speed Precip Events Conditions
12:51 AM 54.0 °F 39.0 °F 57% 29.64 in 10.0 mi WNW 26.5 mph 35.7 mph N/A   Mostly Cloudy
1:51 AM 54.0 °F 39.9 °F 59% 29.65 in 10.0 mi WNW 24.2 mph 32.2 mph N/A   Mostly Cloudy
2:51 AM 53.1 °F 41.0 °F 64% 29.66 in 10.0 mi WNW 16.1 mph 24.2 mph N/A   Mostly Cloudy
3:51 AM 53.1 °F 39.9 °F 61% 29.67 in 10.0 mi WNW 18.4 mph 35.7 mph N/A   Mostly Cloudy
4:51 AM 53.1 °F 39.9 °F 61% 29.69 in 10.0 mi NW 26.5 mph 33.4 mph N/A   Mostly Cloudy
5:51 AM 53.1 °F 39.0 °F 59% 29.72 in 10.0 mi NW 19.6 mph 28.8 mph N/A   Scattered Clouds
6:51 AM 52.0 °F 39.0 °F 61% 29.75 in 10.0 mi NNW 17.3 mph 25.3 mph N/A   Partly Cloudy
7:51 AM 52.0 °F 39.0 °F 61% 29.78 in 10.0 mi NW 19.6 mph 26.5 mph N/A   Scattered Clouds
8:51 AM 52.0 °F 39.0 °F 61% 29.81 in 10.0 mi NW 20.7 mph 29.9 mph N/A   Mostly Cloudy
9:51 AM 54.0 °F 39.9 °F 59% 29.82 in 10.0 mi NW 21.9 mph 32.2 mph N/A   Mostly Cloudy
10:51 AM 55.0 °F 39.9 °F 57% 29.82 in 10.0 mi NW 24.2 mph - N/A   Scattered Clouds
11:51 AM 57.0 °F 39.0 °F 51% 29.83 in 10.0 mi WNW 17.3 mph 25.3 mph N/A   Partly Cloudy
12:51 PM 57.0 °F 39.0 °F 51% 29.83 in 10.0 mi WNW 16.1 mph 25.3 mph N/A   Partly Cloudy
1:51 PM 57.9 °F 39.0 °F 49% 29.84 in 10.0 mi WNW 23.0 mph 27.6 mph N/A   Scattered Clouds
2:51 PM 59.0 °F 39.9 °F 49% 29.85 in 10.0 mi NW 24.2 mph - N/A   Scattered Clouds
3:51 PM 57.9 °F 39.0 °F 49% 29.87 in 10.0 mi NW 21.9 mph 28.8 mph N/A   Scattered Clouds
4:51 PM 55.9 °F 37.9 °F 51% 29.89 in 10.0 mi NNW 21.9 mph 28.8 mph N/A   Partly Cloudy
5:51 PM 54.0 °F 37.9 °F 55% 29.91 in 10.0 mi NW 18.4 mph - N/A   Partly Cloudy
6:51 PM 53.1 °F 37.0 °F 55% 29.93 in 10.0 mi NW 18.4 mph 28.8 mph N/A   Mostly Cloudy
7:51 PM 52.0 °F 36.0 °F 54% 29.97 in 10.0 mi NNW 17.3 mph - N/A   Scattered Clouds
8:51 PM 51.1 °F 36.0 °F 56% 29.98 in 10.0 mi NNW 13.8 mph - N/A   Partly Cloudy
9:51 PM 51.1 °F 37.0 °F 59% 30.00 in 10.0 mi NW 12.7 mph - N/A   Partly Cloudy
10:51 PM 50.0 °F 36.0 °F 59% 30.01 in 10.0 mi NNW 13.8 mph - N/A   Clear
11:51 PM 48.9 °F 35.1 °F 59% 30.02 in 10.0 mi NNW 8.1 mph - N/A   Clear